Weather History for KPMD - April, 2011

Change the Weather History Date:

Monday, April 18, 2011

  Actual Average Record
Temperature  
Mean Temperature 66 °F 58 °F  
Max Temperature 74 °F 73 °F 95 °F (1994)
Min Temperature 57 °F 44 °F 28 °F (1968)
Degree Days  
Heating Degree Days 0 7  
Month to date heating degree days 148 162  
Since 1 July heating degree days 2815 2783  
Cooling Degree Days 1 1  
Month to date cooling degree days 5 3  
Year to date cooling degree days 6 5  
Growing Degree Days 15 (Base 50)    
Moisture  
Dew Point 47 °F    
Average Humidity 54    
Maximum Humidity 77    
Minimum Humidity 31    
Precipitation  
Precipitation 0.00 in 0.01 in 0.31 in (1983)
Month to date precipitation T 0.30  
Year to date precipitation 2.33 4.81  
Since 1 July precipitation 7.71  
Snow  
Snow 0.00 in - T in (1972)
Month to date snowfall 0.0  
Since 1 July snowfall 0.0  
Snow Depth 0.00 in    
Sea Level Pressure  
Sea Level Pressure 29.86 in    
Wind  
Wind Speed 20 mph (WSW)    
Max Wind Speed 35 mph    
Max Gust Speed 43 mph    
Visibility 10 miles    
Events      
T = Trace of Precipitation, MM = Missing Value Source: NWS Daily Summary

Daily Weather History Graph

Daily Weather History Graph

Search for Another Location

Airport or City:

Trip Planner

Search our weather history database for the weather conditions in past years. The results will help you decide how hot, cold, wet, or windy it might be!

Date:

Astronomy

Apr. 18, 2011 Rise Set
Actual Time 6:17 AM PDT 7:26 PM PDT
Civil Twilight 5:51 AM PDT 7:52 PM PDT
Nautical Twilight 5:20 AM PDT 8:23 PM PDT
Astronomical Twilight 4:48 AM PDT 8:56 PM PDT
Moon 8:40 PM PDT (4/18) 6:21 AM PDT (4/18)
Length of Visible Light 14h 01m
Length of Day
13h 09m
Full, 99% of the Moon is Illuminated
Apr 18
Full
Apr 24
Last Quarter
May 2
New
May 10
First Quarter
May 17
Full

Hourly Weather History & Observations

Time (PDT) Temp. Dew Point Humidity Pressure Visibility Wind Dir Wind Speed Gust Speed Precip Events Conditions
12:53 AM 63.0 °F 43.0 °F 48% 29.84 in 10.0 mi Variable 4.6 mph - N/A   Clear
1:53 AM 62.1 °F 46.9 °F 58% 29.81 in 10.0 mi WSW 18.4 mph - N/A   Clear
2:53 AM 63.0 °F 48.9 °F 60% 29.81 in 10.0 mi West 16.1 mph 25.3 mph N/A   Clear
3:53 AM 61.0 °F 48.0 °F 62% 29.80 in 10.0 mi West 15.0 mph - N/A   Clear
4:53 AM 60.1 °F 48.0 °F 64% 29.81 in 10.0 mi West 17.3 mph 23.0 mph N/A   Clear
5:53 AM 60.1 °F 48.9 °F 67% 29.82 in 10.0 mi West 23.0 mph 31.1 mph N/A   Clear
6:53 AM 60.1 °F 46.0 °F 60% 29.84 in 10.0 mi West 21.9 mph 28.8 mph N/A   Clear
7:53 AM 62.1 °F 46.9 °F 58% 29.86 in 10.0 mi West 20.7 mph 28.8 mph N/A   Clear
8:53 AM 64.0 °F 46.0 °F 52% 29.87 in 10.0 mi West 20.7 mph 26.5 mph N/A   Clear
9:53 AM 66.0 °F 43.0 °F 43% 29.88 in 10.0 mi WNW 24.2 mph 34.5 mph N/A   Clear
10:53 AM 68.0 °F 41.0 °F 37% 29.93 in 10.0 mi West 31.1 mph 38.0 mph N/A   Clear
11:53 AM 71.1 °F 39.9 °F 32% 29.86 in 10.0 mi WNW 24.2 mph 32.2 mph N/A   Clear
12:53 PM 72.0 °F 45.0 °F 38% 29.86 in 10.0 mi West 15.0 mph 42.6 mph N/A   Clear
1:09 PM 73.4 °F 48.2 °F 41% 29.91 in 10.0 mi West 21.9 mph 27.6 mph N/A   Partly Cloudy
1:53 PM 71.1 °F 48.9 °F 45% 29.86 in 10.0 mi West 18.4 mph - N/A   Clear
2:53 PM 71.6 °F 48.2 °F 43% 29.90 in 10.0 mi WSW 20.7 mph 28.8 mph N/A   Clear
3:53 PM 66.9 °F 51.1 °F 57% 29.85 in 10.0 mi WSW 23.0 mph - N/A   Clear
4:53 PM 66.9 °F 50.0 °F 54% 29.84 in 10.0 mi WSW 23.0 mph 28.8 mph N/A   Clear
5:53 PM 64.9 °F 48.9 °F 56% 29.84 in 10.0 mi WSW 20.7 mph - N/A   Clear
6:53 PM 60.1 °F 51.1 °F 72% 29.86 in 9.0 mi SSW 16.1 mph 25.3 mph N/A   Clear
7:53 PM 57.9 °F 50.0 °F 75% 29.88 in 10.0 mi SSW 15.0 mph - N/A   Clear
8:53 PM 57.9 °F 48.9 °F 72% 29.89 in 10.0 mi SW 20.7 mph - N/A   Clear
9:53 PM 59.0 °F 46.9 °F 64% 29.89 in 10.0 mi WSW 17.3 mph 25.3 mph N/A   Clear
10:53 PM 59.0 °F 45.0 °F 60% 29.91 in 10.0 mi WSW 15.0 mph 21.9 mph N/A   Clear
11:53 PM 57.9 °F 44.1 °F 60% 29.89 in 10.0 mi WSW 17.3 mph - N/A   Clear